Location: Unspecified
(0.0000°N, 0.0000°E)
Time: 19:02:38
(UTC+00:00)

THORAD DELTA 1 DEB - Pass Details

Date: 17 February 2026
Orbit: 1451 x 1738 km, 101.5° (Epoch: 9 March)

Event Time Altitude Azimuth Distance (km) Brightness Sun altitude
Rises 19:43:52 0° 150° (SSE) 4,705 ? -22.0°
Reaches altitude 10° 19:46:57 10° 143° (SE) 3,685 ? -22.7°
Maximum altitude 19:54:54 43° 74° (ENE) 1,971 ? -24.7°
Drops below altitude 10° 20:02:34 10° 6° (N) 3,564 ? -26.5°
Sets 20:05:29 0° 360° (N) 4,537 ? -27.2°
